Regional Weather Roundup
Issued by NWS

Home | Current Version | Previous Version | Graphics & Text | Print | Product List | Glossary On
Versions: 1 2 3 4 5 6 7 8 9 10 11 12 13 14 15 16 17 18 19 20 21 22 23 24 25 26 27 28 29 30 31 32 33 34 35 36 37 38 39 40 41 42 43 44 45 46 47 48 49 50
000
ASUS44 KMEG 221400
RWRTN
TENNESSEE HOURLY STATE WEATHER ROUNDUP
NATIONAL WEATHER SERVICE MEMPHIS TN
900 AM CDT TUE JUL 22 2014

TNZ002-004-019-021-049-052-054-088>092-221500-
WEST TENNESSEE

CITY           SKY/WX    TMP DP  RH WIND       PRES   REMARKS
MEMPHIS INTL   SUNNY     81  67  62 NE6       30.09F
NWS MEMPHIS      N/A     79 N/A N/A MISG        N/A
JACKSON        SUNNY     76  69  79 CALM      30.10S
DYERSBURG      SUNNY     77  63  61 NE3       30.10S
PARIS          SUNNY     75  68  78 SE3       30.11S
LEXINGTON      SUNNY     79  72  78 CALM      30.09F
$$

TNZ008-025-027-028-033-062-065-066-221500-
NORTH MIDDLE TENNESSEE

CITY           SKY/WX    TMP DP  RH WIND       PRES   REMARKS
NASHVILLE      MOSUNNY   81  72  74 SE9       30.13S
CLARKSVILLE    SUNNY     80  70  71 SE3       30.10F
COOKEVILLE     PTSUNNY   79  72  78 CALM      30.17R
CROSSVILLE     PTSUNNY   75  68  78 CALM      30.21S
$$

TNZ061-075-076-078-094-096-097-221500-
SOUTH MIDDLE TENNESSEE

CITY           SKY/WX    TMP DP  RH WIND       PRES   REMARKS
FAYETTEVILLE   MOSUNNY   75  72  88 SE10      30.15S
WINCHESTER     MOSUNNY   75  72  88 SE7       30.16S
SHELBYVILLE    PTSUNNY   79  73  83 SE8       30.16R
$$

TNZ017-018-042-046-047-221500-
NORTHEAST TENNESSEE

CITY           SKY/WX    TMP DP  RH WIND       PRES   REMARKS
TRI CITIES     MOSUNNY   76  65  68 CALM      30.20F
ELIZABETHTON   SUNNY     75  64  69 E3        30.20F
$$

TNZ012-013-036-069-073-074-221500-
CENTRAL EAST TENNESSEE

CITY           SKY/WX    TMP DP  RH WIND       PRES   REMARKS
KNOXVILLE      PTSUNNY   77  68  73 CALM      30.16S
OAK RIDGE      PTSUNNY   77  70  79 VRB3      30.17F
GATLINBURG     CLOUDY    73  66  78 CALM      30.17S
$$

TNZ083-085-099-221500-
SOUTHEAST TENNESSEE

CITY           SKY/WX    TMP DP  RH WIND       PRES   REMARKS
CHATTANOOGA    PTSUNNY   79  69  71 CALM      30.16R
$$

SKY/WX REPORTED AS FAIR MEANS FEW OR NO CLOUDS BELOW
12 THOUSAND FEET.




USA.gov is the U.S. government's official web portal to all federal, state and local government web resources and services.